TimeCDT,TemperatureF,Dew PointF,Humidity,Sea Level PressureIn,VisibilityMPH,Wind Direction,Wind SpeedMPH,Gust SpeedMPH,PrecipitationIn,Events,Conditions,WindDirDegrees,DateUTC
1:15 PM,75.2,48.2,38,29.90,10.0,South,13.8,-,N/A,,Clear,180,2013-09-30 18:15:00
1:35 PM,75.2,48.2,38,29.89,10.0,SSE,11.5,18.4,N/A,,Clear,160,2013-09-30 18:35:00
1:55 PM,75.2,48.2,38,29.87,10.0,SSE,11.5,18.4,N/A,,Clear,150,2013-09-30 18:55:00
2:15 PM,77.0,48.2,36,29.86,10.0,SE,11.5,20.7,N/A,,Clear,140,2013-09-30 19:15:00
2:35 PM,77.0,48.2,36,29.86,10.0,SE,12.7,19.6,N/A,,Clear,140,2013-09-30 19:35:00
2:55 PM,77.0,50.0,39,29.86,10.0,South,16.1,-,N/A,,Clear,170,2013-09-30 19:55:00
3:15 PM,78.8,50.0,36,29.85,10.0,SSE,12.7,19.6,N/A,,Clear,150,2013-09-30 20:15:00
3:35 PM,78.8,50.0,36,29.84,10.0,South,15.0,-,N/A,,Clear,170,2013-09-30 20:35:00
3:55 PM,78.8,50.0,36,29.84,10.0,SSE,11.5,19.6,N/A,,Clear,160,2013-09-30 20:55:00
4:15 PM,78.8,50.0,36,29.84,10.0,SSW,16.1,21.9,N/A,,Clear,210,2013-09-30 21:15:00
4:35 PM,78.8,50.0,36,29.83,10.0,SSW,16.1,-,N/A,,Clear,200,2013-09-30 21:35:00
4:55 PM,78.8,50.0,36,29.83,10.0,South,16.1,23.0,N/A,,Clear,190,2013-09-30 21:55:00
5:15 PM,77.0,51.8,41,29.83,10.0,South,16.1,-,N/A,,Clear,180,2013-09-30 22:15:00
5:35 PM,77.0,51.8,41,29.83,10.0,South,16.1,-,N/A,,Clear,190,2013-09-30 22:35:00
5:55 PM,77.0,53.6,44,29.82,10.0,South,15.0,-,N/A,,Clear,190,2013-09-30 22:55:00
6:15 PM,75.2,53.6,47,29.83,10.0,South,11.5,-,N/A,,Clear,190,2013-09-30 23:15:00
6:35 PM,73.4,53.6,50,29.83,10.0,South,11.5,-,N/A,,Clear,190,2013-09-30 23:35:00
6:55 PM,71.6,53.6,53,29.83,10.0,South,10.4,-,N/A,,Clear,180,2013-09-30 23:55:00
7:15 PM,69.8,53.6,56,29.83,10.0,South,9.2,-,N/A,,Clear,170,2013-10-01 00:15:00
7:35 PM,68.0,55.4,64,29.83,10.0,South,8.1,-,N/A,,Clear,180,2013-10-01 00:35:00
7:55 PM,66.2,55.4,68,29.83,10.0,South,9.2,-,N/A,,Clear,170,2013-10-01 00:55:00
8:15 PM,66.2,55.4,68,29.83,10.0,South,8.1,-,N/A,,Clear,180,2013-10-01 01:15:00
8:35 PM,64.4,55.4,73,29.83,10.0,South,9.2,-,N/A,,Clear,170,2013-10-01 01:35:00
8:55 PM,64.4,55.4,73,29.83,10.0,South,8.1,-,N/A,,Clear,170,2013-10-01 01:55:00
9:15 PM,64.4,55.4,73,29.84,10.0,South,8.1,-,N/A,,Clear,180,2013-10-01 02:15:00
9:35 PM,62.6,55.4,77,29.83,10.0,South,9.2,-,N/A,,Clear,180,2013-10-01 02:35:00
9:55 PM,62.6,55.4,77,29.84,10.0,South,8.1,-,N/A,,Clear,190,2013-10-01 02:55:00
10:15 PM,62.6,55.4,77,29.84,10.0,South,6.9,-,N/A,,Clear,180,2013-10-01 03:15:00
10:35 PM,60.8,55.4,82,29.85,10.0,South,8.1,-,N/A,,Clear,180,2013-10-01 03:35:00
10:55 PM,60.8,57.2,88,29.85,10.0,South,8.1,-,N/A,,Clear,170,2013-10-01 03:55:00
11:15 PM,60.8,57.2,88,29.85,10.0,South,6.9,-,N/A,,Clear,180,2013-10-01 04:15:00
11:35 PM,60.8,57.2,88,29.86,10.0,South,6.9,-,N/A,,Clear,180,2013-10-01 04:35:00
11:55 PM,60.8,57.2,88,29.86,10.0,South,6.9,-,N/A,,Clear,170,2013-10-01 04:55:00